[[{"header":{"parameterUnit":"m.s-1","parameterCategory":1,"la1":30.2991,"la2":30.254,"lo1":-89.0895,"lo2":-89.0444,"dy":0.0017,"dx":0.0017,"nx":28,"ny":28,"refTime":"2024-07-02T21:00:00:Z","depth":0,"parameterNumber":2,"parameterNumberName":"U-component_of_WINDS"},"data":[0,0,0,0,0,0,0,0,0,0,0,0,0,0,0,0,0,0,0,0,0,0,0,0,0,0,0,0,0,0,0,0,0,0,0,0,0,0,0,0,0,0,0,0,0,0,0,0,0,0,0,0,0,0,0,0,0,0,1.7178,1.7179,0,1.7264,1.7265,1.7266,1.7303,1.7303,1.7302,1.7302,1.7393,1.7396,1.7398,0,0,0,0,0,0,0,0,0,0,0,0,0,1.7046,1.7048,1.7178,1.7179,1.718,1.7264,1.7265,1.7266,1.7303,1.7303,1.7302,1.7302,1.7392,1.7395,1.7398,0,0,0,0,0,0,0,0,0,0,0,0,0,1.7115,1.7049,1.7178,1.7208,1.7212,1.7264,1.7265,1.7267,1.7303,1.7303,1.7302,1.7302,1.7391,1.7395,1.7399,1.7428,0,0,1.7411,1.7412,0,0,0,0,0,0,0,0,1.7111,1.712,1.7203,1.7206,1.721,1.7272,1.7252,1.7321,1.7303,1.7268,1.7302,1.7302,1.7353,1.736,1.7377,1.7432,1.7436,1.7411,1.7413,1.7415,1.7416,0,0,0,0,0,0,0,1.7106,1.7116,1.7212,1.7204,1.7209,1.7218,1.7228,1.7265,1.7311,1.7271,1.7274,1.7284,1.7355,1.7373,1.738,1.7437,1.7411,1.7414,1.7417,1.7418,1.7519,1.7519,0,0,0,0,0,0,1.7096,1.7112,1.7209,1.7215,1.7159,1.7221,1.7231,1.7253,1.7311,1.732,1.7284,1.7285,1.7367,1.7375,1.7383,1.742,1.7415,1.7419,1.7421,1.7519,1.7519,1.7519,0,0,0,0,0,0,1.7093,1.7105,1.7206,1.7164,1.7178,1.7223,1.7247,1.7255,1.7272,1.732,1.7329,1.7294,1.7367,1.7377,1.7416,1.7424,1.742,1.7424,1.7518,1.7519,1.7519,1.7494,0,0,0,0,0,0,1.7089,1.7103,1.7114,1.7164,1.718,1.7237,1.7247,1.7256,1.7279,1.7281,1.7332,1.734,1.7368,1.741,1.742,1.7429,1.7427,1.7518,1.7518,1.7519,1.7495,1.7494,1.7493,0,0,0,0,0,1.7085,1.7104,1.7115,1.7126,1.7194,1.7237,1.7246,1.7277,1.7279,1.7291,1.7321,1.7338,1.7421,1.7413,1.7425,1.7435,1.7517,1.7518,1.7519,1.7495,1.7494,1.7493,0,0,0,0,0,0,1.7055,1.7112,1.7124,1.716,1.7193,1.7243,1.7259,1.7275,1.7309,1.731,1.7347,1.7359,1.7394,1.7418,1.7409,1.7466,1.7471,1.7474,1.7448,1.7448,1.7447,1.7441,1.743,0,0,0,0,0,1.7053,1.7082,1.713,1.7158,1.7174,1.7213,1.7233,1.7254,1.729,1.7305,1.7338,1.7373,1.7407,1.7429,1.7463,1.7498,1.751,1.7511,1.751,1.7509,1.7512,1.7532,1.7533,1.7522,1.7522,1.7522,0,0,1.7049,1.7083,1.71,1.7153,1.7181,1.7211,1.7225,1.7256,1.7279,1.731,1.7348,1.7373,1.7415,1.7452,1.747,1.7474,1.7517,1.751,1.7509,1.7512,1.7533,1.7534,1.7535,1.7523,1.7523,1.7522,0,0,1.7056,1.7085,1.7111,1.7139,1.7181,1.7207,1.7213,1.726,1.7278,1.7317,1.734,1.7368,1.7426,1.7454,1.7476,1.7493,1.751,1.7504,1.75,1.7519,1.752,1.7521,1.7527,1.7529,1.7506,1.7506,1.7506,0,1.7046,1.7092,1.7123,1.7152,1.7175,1.7203,1.723,1.7255,1.7307,1.7322,1.7325,1.7397,1.7428,1.7471,1.7475,1.7492,1.75,1.7498,1.7517,1.7519,1.752,1.7526,1.7528,1.7505,1.7505,1.7505,1.7505,0,1.7077,1.7108,1.7124,1.7171,1.7196,1.7224,1.726,1.7281,1.7299,1.7324,1.7363,1.74,1.7442,1.7453,1.7472,1.75,1.7501,1.751,1.7516,1.7519,1.7526,1.7528,1.7503,1.7503,1.7504,1.7504,0,0,1.7069,1.7133,1.7138,1.716,1.7208,1.7233,1.7262,1.7302,1.7319,1.7353,1.7379,1.7426,1.7435,1.746,1.7482,1.7499,1.751,1.7506,1.7508,1.7506,1.7542,1.7535,1.7537,1.7521,1.7521,1.7522,1.7539,0,1.7083,1.7136,1.7164,1.7205,1.7234,1.7261,1.7286,1.7319,1.7343,1.7372,1.74,1.7432,1.7442,1.7457,1.7474,1.7504,1.7518,1.7504,1.7545,1.7547,1.7534,1.754,1.7533,1.7547,1.7541,1.7542,1.7542,0,1.7107,1.7139,1.7183,1.7227,1.724,1.7263,1.7301,1.7328,1.7365,1.7382,1.7409,1.743,1.7462,1.7465,1.751,1.75,1.7519,1.7536,1.7537,1.7543,1.7545,1.7546,1.7552,1.7554,1.7546,1.7546,1.7546,0,1.7096,1.7151,1.7185,1.7202,1.7255,1.727,1.7292,1.7329,1.7351,1.7385,1.7399,1.7436,1.7457,1.7485,1.7516,1.7515,1.7558,1.7563,1.7573,1.7572,1.7581,1.758,1.7591,1.7593,1.7593,1.7593,1.7593,0,1.7109,1.7135,1.7181,1.7201,1.723,1.7263,1.7291,1.7316,1.7349,1.7374,1.74,1.7424,1.7463,1.7492,1.7516,1.755,1.7559,1.7573,1.758,1.7571,1.7569,1.7584,1.7584,1.7593,1.7593,1.7593,1.7593,0,1.7103,1.7135,1.7172,1.7218,1.7231,1.725,1.729,1.7311,1.7336,1.7369,1.7378,1.7418,1.7453,1.7487,1.7534,1.7551,1.7584,1.7592,1.7571,1.7575,1.7582,1.7581,1.7603,1.7607,1.7606,1.7606,1.7606,0,1.7109,1.7129,1.7177,1.7196,1.7218,1.7248,1.727,1.7302,1.7324,1.7368,1.7383,1.742,1.7451,1.7506,1.754,1.7576,1.7586,1.7591,1.7592,1.7582,1.7586,1.7584,1.7587,1.759,1.759,1.759,1.759,0,1.7116,1.7131,1.7161,1.7197,1.7222,1.7252,1.7283,1.7297,1.7336,1.7359,1.7395,1.7419,1.7467,1.7503,1.7543,1.7567,1.7585,1.7589,1.7593,1.7585,1.7572,1.7579,1.7569,1.7589,1.7589,1.7589,1.7589,1.7589,1.7117,1.7136,1.7172,1.7205,1.7231,1.7259,1.7281,1.7309,1.7339,1.738,1.7397,1.7433,1.747,1.7525,1.7549,1.7578,1.7582,1.7588,1.759,1.7591,1.7589,1.7567,1.7585,1.7585,1.7585,1.7585,1.7585,0,1.7125,1.715,1.718,1.7222,1.7248,1.7261,1.7296,1.7317,1.7348,1.738,1.741,1.7451,1.7486,1.7522,1.7559,1.7575,1.7584,1.7584,1.7583,1.7588,1.7583,1.7576,1.7576,1.7576,1.7576,1.7576,1.7576,1.7576,1.7133,1.7166,1.7184,1.723,1.7255,1.729,1.7308,1.7334,1.736,1.7404,1.7433,1.7456,1.749,1.753,1.7562,1.7572,1.7585,1.7582,1.7594,1.7588,1.7589,1.7589,1.7583,1.7584,1.7584,1.7597,1.7597,1.7597]},{"header":{"parameterUnit":"m.s-1","parameterCategory":1,"la1":30.2991,"la2":30.254,"lo1":-89.0895,"lo2":-89.0444,"dy":0.0017,"dx":0.0017,"nx":28,"ny":28,"refTime":"2024-07-02T21:00:00:Z","depth":0,"parameterNumber":3,"parameterNumberName":"V-component_of_WINDS"},"data":[0,0,0,0,0,0,0,0,0,0,0,0,0,0,0,0,0,0,0,0,0,0,0,0,0,0,0,0,0,0,0,0,0,0,0,0,0,0,0,0,0,0,0,0,0,0,0,0,0,0,0,0,0,0,0,0,0,0,3.4385,3.4385,0,3.4369,3.4369,3.4369,3.4373,3.4373,3.4374,3.4374,3.4354,3.4353,3.4352,0,0,0,0,0,0,0,0,0,0,0,0,0,3.4416,3.4415,3.4385,3.4385,3.4385,3.4369,3.4369,3.4369,3.4373,3.4374,3.4374,3.4374,3.4354,3.4353,3.4352,0,0,0,0,0,0,0,0,0,0,0,0,0,3.4401,3.4415,3.4385,3.4385,3.4385,3.4369,3.4369,3.4369,3.4373,3.4374,3.4374,3.4374,3.4355,3.4353,3.4352,3.4334,0,0,3.4348,3.4348,0,0,0,0,0,0,0,0,3.4402,3.44,3.4385,3.4385,3.4385,3.4374,3.4372,3.4357,3.4373,3.4377,3.4374,3.4375,3.436,3.4358,3.4354,3.4333,3.4332,3.4348,3.4347,3.4347,3.4346,0,0,0,0,0,0,0,3.4403,3.4401,3.4379,3.4385,3.4385,3.4385,3.4383,3.437,3.4366,3.4377,3.4377,3.4376,3.436,3.4355,3.4354,3.4332,3.4348,3.4347,3.4346,3.4346,3.4295,3.4295,0,0,0,0,0,0,3.4405,3.4402,3.4379,3.4378,3.4395,3.4384,3.4382,3.4377,3.4366,3.4365,3.4375,3.4376,3.4357,3.4355,3.4353,3.4331,3.4347,3.4346,3.4345,3.4296,3.4295,3.4295,0,0,0,0,0,0,3.4405,3.4403,3.438,3.439,3.4387,3.4383,3.4377,3.4376,3.4372,3.4365,3.4364,3.4371,3.4357,3.4355,3.4339,3.433,3.4345,3.4344,3.4297,3.4296,3.4295,3.4287,0,0,0,0,0,0,3.4406,3.4403,3.4397,3.439,3.4387,3.4367,3.4376,3.4376,3.437,3.4371,3.4361,3.436,3.4358,3.4341,3.4338,3.4329,3.4343,3.4297,3.4296,3.4295,3.4288,3.4286,3.4285,0,0,0,0,0,3.4407,3.4395,3.4397,3.4394,3.4379,3.4367,3.4365,3.4364,3.4369,3.4363,3.4358,3.436,3.4332,3.4339,3.4336,3.4326,3.4298,3.4297,3.4295,3.4289,3.4287,3.4285,0,0,0,0,0,0,3.44,3.4394,3.4396,3.4381,3.4375,3.4368,3.4359,3.4361,3.4352,3.4353,3.4351,3.4349,3.4333,3.4328,3.4336,3.4308,3.4315,3.4313,3.4312,3.431,3.4308,3.4309,3.4342,0,0,0,0,0,3.4397,3.4388,3.4383,3.437,3.4367,3.4364,3.4358,3.4358,3.4351,3.4348,3.4342,3.4334,3.4323,3.4316,3.4306,3.4288,3.4285,3.4279,3.4278,3.4276,3.4274,3.4263,3.4261,3.429,3.429,3.429,0,0,3.4389,3.4385,3.438,3.4369,3.4364,3.4354,3.4361,3.4351,3.4343,3.4346,3.4331,3.4327,3.4317,3.43,3.4292,3.4296,3.4265,3.4274,3.4273,3.4272,3.4262,3.4259,3.4257,3.4289,3.429,3.429,0,0,3.4371,3.4368,3.4357,3.4352,3.4344,3.4342,3.434,3.4333,3.433,3.4316,3.4317,3.4307,3.4289,3.4282,3.4277,3.4256,3.4257,3.4252,3.4243,3.4232,3.423,3.4228,3.422,3.4217,3.4251,3.4251,3.4251,0,3.4363,3.435,3.435,3.434,3.4334,3.4338,3.4325,3.432,3.4309,3.4305,3.4309,3.4287,3.428,3.4262,3.4257,3.4252,3.4248,3.4253,3.423,3.4228,3.4226,3.4219,3.4216,3.425,3.425,3.425,3.425,0,3.4339,3.433,3.4322,3.4313,3.4306,3.4295,3.4293,3.4286,3.4286,3.4283,3.4268,3.4261,3.4249,3.4245,3.4244,3.4225,3.4228,3.4231,3.4238,3.4223,3.4216,3.4213,3.4249,3.425,3.425,3.425,0,0,3.4316,3.4308,3.4304,3.43,3.4293,3.4285,3.4273,3.4263,3.4257,3.4249,3.4239,3.4223,3.4227,3.422,3.4219,3.421,3.4193,3.4214,3.4214,3.421,3.4171,3.4168,3.4165,3.4194,3.4193,3.4193,3.4172,0,3.4297,3.4278,3.4278,3.426,3.4251,3.4254,3.4243,3.4237,3.4234,3.4225,3.422,3.421,3.4215,3.4211,3.4202,3.4197,3.4185,3.4199,3.4183,3.4182,3.4185,3.4161,3.4158,3.4138,3.4169,3.4168,3.4168,0,3.4272,3.4265,3.4246,3.424,3.4236,3.4227,3.4218,3.4209,3.4201,3.42,3.4192,3.4193,3.4179,3.4187,3.4169,3.4178,3.4171,3.4168,3.4167,3.4165,3.4174,3.4158,3.4132,3.4129,3.4164,3.4164,3.4164,0,3.4256,3.4242,3.4229,3.4225,3.4218,3.4211,3.4207,3.42,3.4194,3.4185,3.4181,3.417,3.4164,3.4155,3.4152,3.4158,3.4133,3.4141,3.413,3.413,3.4124,3.4125,3.4096,3.4121,3.4121,3.4121,3.4121,0,3.4235,3.4223,3.4222,3.4214,3.42,3.42,3.4186,3.4183,3.4177,3.4167,3.4168,3.4159,3.4156,3.4145,3.4142,3.4127,3.4124,3.4121,3.4121,3.4121,3.4121,3.4117,3.4118,3.412,3.412,3.412,3.4121,0,3.4214,3.4213,3.4199,3.4194,3.4192,3.4182,3.4176,3.4168,3.4165,3.4153,3.415,3.4145,3.4133,3.4129,3.4114,3.4112,3.4094,3.4095,3.4097,3.4097,3.4086,3.4087,3.4054,3.4049,3.4077,3.4077,3.4076,0,3.4201,3.4192,3.4186,3.418,3.4176,3.4167,3.4161,3.416,3.4153,3.4144,3.4136,3.4125,3.4116,3.4096,3.409,3.4078,3.4078,3.4067,3.4077,3.4077,3.4078,3.4078,3.4077,3.4066,3.4065,3.4065,3.4065,0,3.4176,3.4176,3.4168,3.416,3.4153,3.4146,3.4139,3.4134,3.4132,3.4124,3.4113,3.4106,3.4091,3.4079,3.4067,3.4062,3.4062,3.4062,3.4059,3.4059,3.4061,3.4059,3.4092,3.4063,3.4063,3.4063,3.4063,3.4063,3.4158,3.4151,3.4145,3.4136,3.4131,3.4125,3.4117,3.4114,3.4104,3.4093,3.4093,3.408,3.4072,3.4056,3.405,3.4039,3.4042,3.4038,3.4036,3.4035,3.4034,3.4063,3.4037,3.4037,3.4037,3.4037,3.4037,0,3.4134,3.4131,3.4122,3.4113,3.4106,3.4109,3.4102,3.4095,3.4084,3.4077,3.4068,3.4054,3.4043,3.4036,3.4024,3.4017,3.4017,3.4013,3.4014,3.4012,3.4033,3.4036,3.4014,3.4014,3.4014,3.4014,3.4014,3.4014,3.412,3.4107,3.4106,3.4091,3.4087,3.4076,3.4071,3.4065,3.4059,3.4045,3.4036,3.4032,3.4025,3.4012,3.4001,3.4,3.3995,3.3991,3.399,3.4009,3.4011,3.4013,3.4017,3.399,3.399,3.397,3.397,3.397]}]]